Wind_Speed
68 58 53 47 45 37 38 57 47 47 37 37 41 34 34 33 35 36 40 43 48 52 54 52 54 60 61 61 57 57 56 54
70 62 60 58 48 54 52 41 60 56 48 44 38 37 40 40 42 41 41 36 40 46 48 49 42 46 49 48 48 47 52 54
67 66 58 57 57 58 48 45 55 54 51 40 41 44 43 38 30 29 39 38 36 41 39 38 32 36 48 50 48 52 52 49
61 64 58 52 46 50 55 65 61 56 46 41 37 35 33 27 31 31 31 36 38 39 41 41 41 41 42 43 47 50 51 53
64 71 59 56 52 55 68 62 62 56 54 49 42 46 54 43 36 31 33 38 43 42 41 42 45 40 44 45 49 54 55 58
60 64 65 65 57 55 63 58 57 60 49 49 53 53 57 51 47 43 40 42 49 50 48 45 47 49 50 51 54 57 60 62
60 67 69 68 62 53 56 48 55 60 58 54 56 61 59 52 57 59 54 52 51 52 54 53 51 53 57 56 58 60 63 64
64 68 69 65 63 63 60 52 57 53 58 58 56 44 51 56 57 55 60 63 65 61 62 58 55 52 55 58 60 61 66 69
71 67 70 67 66 68 67 62 56 53 57 58 58 59 64 63 60 58 61 60 64 65 66 65 61 61 63 65 69 69 71 71
66 72 69 67 67 66 66 64 62 58 57 57 54 56 52 55 54 66 66 67 68 70 67 67 68 67 69 72 74 75 74 75
72 78 78 72 70 66 68 65 64 64 61 66 66 65 57 56 54 56 61 62 64 67 70 73 72 75 75 77 74 76 73 73
60 81 82 81 74 71 71 69 67 64 67 63 62 70 57 58 61 62 64 65 68 70 75 78 77 80 78 75 73 70 72 72
49 56 82 81 81 72 71 71 71 71 67 67 66 66 64 59 68 67 66 66 69 73 74 66 65 68 67 68 69 68 67 67
52 56 55 56 71 72 78 69 62 65 70 72 70 68 64 65 69 72 72 70 63 70 64 63 63 63 66 67 70 72 75 75
56 59 58 55 55 60 66 72 66 64 61 69 70 69 75 78 71 68 64 68 63 64 67 67 69 71 74 76 73 74 79 80
45 46 52 48 50 53 53 58 59 57 61 58 65 62 65 58 69 71 64 64 66 62 61 63 65 67 69 71 71 75 74 76
33 43 46 50 52 48 48 49 52 55 57 54 57 52 57 52 58 57 61 63 64 65 62 64 66 67 68 71 71 74 77 78
33 32 37 41 40 38 43 43 41 44 46 48 53 51 52 55 60 61 63 67 65 64 65 65 65 65 69 70 72 73 72 70
29 33 36 38 41 46 45 43 44 46 45 47 49 51 52 56 59 60 62 63 63 63 64 65 64 65 64 63 67 72 75 77
25 28 31 37 35 36 38 42 44 45 46 48 51 55 54 53 54 57 59 63 66 65 66 61 56 57 62 70 74 77 80 81
Wind_Direction
174 189 181 179 189 206 219 234 241 248 268 280 286 266 259 266 269 266 261 263 265 261 261 261 266 273 275 275 278 279 282 282
187 198 199 190 190 194 204 223 243 255 260 262 266 258 265 267 277 278 271 276 265 260 263 266 269 276 275 275 279 280 282 284
192 193 198 187 187 197 214 202 213 246 251 247 248 262 269 273 269 280 284 285 273 261 263 263 265 271 272 277 279 282 287 292
195 194 196 197 185 199 196 206 219 225 230 237 250 257 253 260 269 270 272 278 261 258 261 264 268 275 280 281 283 291 293 296
198 199 190 185 189 201 199 212 222 225 226 238 247 256 262 260 262 266 263 270 277 280 274 273 275 279 285 291 294 299 299 297
200 202 191 190 194 196 198 207 209 216 228 235 249 254 259 259 251 263 263 271 278 279 280 283 284 287 286 288 291 295 295 294
201 192 196 195 197 198 209 211 215 217 226 233 240 247 258 259 254 257 261 266 276 278 280 282 284 281 286 288 292 291 291 293
203 205 200 200 212 211 215 215 217 225 227 229 235 255 259 259 258 259 260 261 267 277 278 282 285 288 288 288 289 289 290 294
202 207 206 211 214 215 217 221 224 233 235 235 248 256 255 257 260 264 265 269 269 273 276 276 280 284 286 288 289 291 293 293
206 211 215 219 216 221 222 226 235 240 245 247 256 255 263 266 272 266 268 271 273 275 274 274 279 283 285 288 289 292 289 289
207 215 216 219 220 227 229 232 241 245 247 250 253 258 263 269 273 270 271 273 274 275 275 276 279 281 283 284 287 290 286 281
212 212 215 219 221 230 232 236 240 247 248 251 251 257 266 268 266 274 276 272 273 273 273 275 276 278 283 287 286 279 273 274
222 218 217 220 221 230 234 239 243 248 252 254 256 258 266 270 268 273 275 273 278 278 278 277 283 284 278 280 276 276 278 277
224 231 234 227 232 235 234 239 249 252 257 258 259 262 267 271 273 271 276 276 276 278 280 281 278 275 275 274 276 283 285 286
226 231 236 240 238 237 240 243 248 249 261 257 259 263 264 266 272 272 274 273 272 273 273 272 273 275 279 280 283 285 286 289
235 243 238 244 248 250 255 255 254 261 264 265 261 269 270 273 273 274 275 276 278 277 275 276 279 281 281 282 285 288 289 288
234 239 244 245 253 252 256 262 263 265 265 267 267 272 271 271 275 277 276 279 278 281 283 285 283 282 284 287 288 289 290 287
232 236 240 245 248 250 257 258 260 265 267 267 270 268 270 272 276 281 285 285 286 286 284 284 285 288 290 292 292 292 294 296
245 240 240 243 249 253 254 255 261 265 267 269 272 276 279 283 283 284 286 287 287 287 288 288 289 288 290 292 298 300 300 302
245 248 243 236 243 249 255 260 261 267 273 277 277 287 287 286 288 289 287 285 283 284 285 288 289 293 301 302 301 301 300 299
Height
10690 10702 10699 10702 10723 10728 10736 10736 10733 10741 10740 10738 10745 10747 10748 10748 10749 10751 10753 10755 10757 10760 10761 10764 10764 10761 10767 10773 10769 10769 10769 10767
10682 10694 10699 10703 10706 10713 10727 10731 10714 10732 10738 10738 10739 10741 10740 10740 10742 10744 10746 10747 10750 10750 10752 10756 10762 10756 10754 10761 10761 10759 10758 10757
10671 10681 10690 10696 10702 10707 10721 10726 10720 10727 10734 10731 10732 10733 10733 10736 10736 10738 10739 10741 10742 10742 10745 10749 10755 10750 10748 10752 10751 10750 10747 10745
10667 10675 10686 10691 10699 10705 10711 10712 10712 10720 10725 10725 10725 10726 10727 10730 10732 10734 10735 10735 10736 10737 10739 10742 10746 10743 10742 10742 10740 10739 10738 10737
10667 10675 10684 10690 10693 10698 10700 10703 10705 10713 10718 10718 10719 10717 10719 10726 10730 10730 10731 10730 10731 10734 10736 10737 10738 10736 10732 10733 10730 10728 10727 10726
10668 10675 10680 10682 10686 10691 10696 10700 10702 10707 10708 10713 10713 10715 10717 10719 10724 10726 10727 10726 10726 10727 10729 10729 10729 10728 10724 10724 10723 10720 10717 10714
10666 10672 10675 10680 10683 10686 10688 10692 10695 10700 10702 10704 10703 10704 10707 10714 10717 10718 10720 10720 10720 10720 10721 10720 10720 10720 10716 10715 10715 10710 10707 10704
10663 10669 10673 10676 10680 10682 10684 10686 10689 10690 10694 10694 10694 10698 10701 10706 10709 10710 10713 10714 10713 10713 10712 10711 10709 10709 10708 10702 10704 10701 10697 10694
10654 10661 10667 10671 10673 10678 10680 10682 10684 10687 10688 10689 10691 10692 10696 10697 10699 10702 10705 10705 10706 10706 10705 10703 10702 10700 10699 10695 10690 10690 10686 10680
10649 10653 10658 10664 10669 10670 10673 10677 10677 10680 10682 10686 10686 10687 10689 10690 10691 10694 10696 10697 10698 10697 10696 10694 10693 10690 10689 10686 10682 10675 10672 10669
10641 10646 10652 10657 10662 10664 10668 10672 10673 10673 10676 10678 10680 10682 10682 10681 10684 10686 10686 10688 10687 10688 10687 10685 10683 10680 10677 10676 10672 10668 10657 10655
10634 10639 10646 10650 10657 10659 10661 10662 10666 10667 10671 10671 10669 10671 10673 10674 10676 10678 10677 10677 10677 10677 10676 10673 10670 10668 10663 10658 10656 10653 10651 10644
10626 10633 10642 10645 10649 10652 10653 10656 10659 10660 10661 10661 10663 10664 10665 10667 10666 10666 10666 10667 10666 10666 10663 10656 10655 10652 10648 10646 10641 10638 10634 10630
10620 10625 10631 10640 10642 10645 10649 10651 10653 10654 10655 10656 10658 10658 10658 10658 10658 10658 10657 10655 10653 10652 10650 10646 10644 10641 10637 10634 10629 10620 10614 10612
10617 10621 10625 10631 10636 10641 10645 10647 10650 10651 10653 10652 10652 10648 10648 10649 10646 10645 10644 10643 10643 10642 10637 10633 10630 10625 10623 10620 10617 10611 10600 10593
10610 10616 10621 10627 10630 10632 10636 10638 10641 10641 10639 10639 10638 10635 10635 10633 10631 10633 10634 10631 10625 10623 10622 10618 10614 10610 10607 10602 10600 10594 10591 10582
10606 10610 10614 10617 10620 10623 10625 10628 10630 10629 10629 10628 10628 10625 10626 10626 10623 10620 10619 10619 10614 10608 10604 10603 10600 10598 10595 10589 10584 10577 10570 10564
10598 10602 10605 10609 10612 10616 10619 10620 10619 10619 10620 10619 10618 10621 10618 10620 10617 10609 10599 10595 10593 10590 10590 10589 10585 10582 10576 10571 10567 10560 10553 10546
10594 10597 10598 10601 10604 10607 10609 10611 10613 10614 10612 10611 10614 10613 10608 10605 10599 10591 10585 10580 10575 10572 10570 10573 10571 10568 10565 10558 10552 10544 10536 10529
10585 10587 10590 10593 10595 10598 10601 10603 10604 10604 10602 10601 10601 10597 10592 10587 10577 10573 10572 10565 10562 10563 10563 10562 10557 10552 10547 10541 10536 10530 10523 10516